GLOBALSTAR M001 1 25162U 98008A 25299.35896450 -.00000105 00000+0 -62234-4 0 9996 2 25162 52.0043 311.4358 0001406 162.5299 211.1374 12.38219417259960 GLOBALSTAR M004 1 25163U 98008B 25299.47025536 -.00000059 00000+0 25017-3 0 9993 2 25163 52.0030 13.6352 0003065 213.0239 160.4863 12.63406593278287 GLOBALSTAR M002 1 25164U 98008C 25299.31656688 -.00000101 00000+0 -47636-3 0 9995 2 25164 52.0011 271.4191 0001846 27.6298 332.4620 11.61512565199302 GLOBALSTAR M003 1 25165U 98008D 25299.34805588 -.00000203 00000+0 -12117-2 0 9992 2 25165 51.9917 165.2535 0007546 190.9326 341.0798 12.12052756249123 GLOBALSTAR M014 1 25306U 98023A 25299.18426456 -.00000042 00000+0 66592-3 0 9998 2 25306 51.9823 192.2200 0000081 156.1093 321.2539 11.65483054206444 GLOBALSTAR M006 1 25307U 98023B 25299.24741456 -.00000038 00000+0 76553-3 0 9999 2 25307 51.9931 249.4314 0003477 352.5436 155.2333 11.58177664232019 GLOBALSTAR M015 1 25308U 98023C 25299.41619522 -.00000088 00000+0 -34209-3 0 9995 2 25308 51.9856 353.4974 0012207 309.2970 63.4779 11.48859155209162 GLOBALSTAR M008 1 25309U 98023D 25299.17654481 -.00000040 00000+0 44505-3 0 9999 2 25309 51.9953 178.2813 0003578 86.8016 86.2201 12.36075000254043 GLOBALSTAR M023 1 25621U 99004A 25299.52926012 -.00000121 00000+0 -94774-4 0 9992 2 25621 52.0134 13.4988 0010343 59.4026 314.1479 12.62507497232327 GLOBALSTAR M040 1 25622U 99004B 25299.47626927 -.00000066 00000+0 21007-3 0 9994 2 25622 51.9947 18.0088 0000388 350.2173 22.9662 12.62020547231832 GLOBALSTAR M036 1 25623U 99004C 25299.39196992 -.00000011 00000+0 10398-2 0 9990 2 25623 51.9960 254.4896 0010616 303.9160 228.3897 11.86612805194555 GLOBALSTAR M038 1 25624U 99004D 25299.47392965 -.00000070 00000+0 20445-3 0 9998 2 25624 51.9988 53.4754 0001233 347.6551 87.7142 12.32534487218569 GLOBALSTAR M022 1 25649U 99012A 25299.31279935 -.00000051 00000+0 43669-3 0 9990 2 25649 52.0046 294.4417 0002917 69.8820 303.3466 12.02505100192157 GLOBALSTAR M041 1 25650U 99012B 25299.35490882 -.00000116 00000+0 -39659-3 0 9999 2 25650 52.0004 179.7768 0000757 183.4190 176.6641 11.96680452193984 GLOBALSTAR M046 1 25651U 99012C 25299.27804512 -.00000074 00000+0 16570-3 0 9999 2 25651 52.0051 239.8841 0001964 136.9920 15.9887 12.09415607199528 GLOBALSTAR M037 1 25652U 99012D 25299.31076883 -.00000092 00000+0 63586-4 0 9997 2 25652 51.9982 144.7358 0002910 105.8391 64.6856 12.62453141227833 GLOBALSTAR M045 1 25676U 99019A 25299.43248785 -.00000059 00000+0 30831-3 0 9994 2 25676 51.9969 291.1912 0000456 81.8952 74.0711 12.27066810209509 GLOBALSTAR M019 1 25677U 99019B 25299.52377897 .00000004 00000+0 98234-3 0 9992 2 25677 51.9875 70.5348 0001147 186.1276 250.9307 12.13877261201091 GLOBALSTAR M044 1 25678U 99019C 25299.44217941 -.00000124 00000+0 -56127-3 0 9997 2 25678 51.9995 38.5433 0005591 291.6434 147.5867 11.90260053186957 GLOBALSTAR M042 1 25679U 99019D 25299.50349022 -.00000066 00000+0 24843-3 0 9995 2 25679 52.0036 40.2400 0003093 196.8657 246.6493 12.22089811201319 GLOBALSTAR M025 1 25770U 99031A 25299.49583065 -.00000072 00000+0 -14438-3 0 9993 2 25770 51.9806 215.0850 0002760 16.2835 154.6536 11.22557633496456 GLOBALSTAR M049 1 25771U 99031B 25299.21643959 -.00000028 00000+0 12798-2 0 9999 2 25771 51.9870 257.0810 0002435 243.9842 116.0704 11.12121081132006 GLOBALSTAR M047 1 25772U 99031C 25299.28607678 -.00000046 00000+0 65381-3 0 9992 2 25772 51.9823 241.3664 0016444 125.5863 234.6478 11.31930487485950 GLOBALSTAR M052 1 25773U 99031D 25299.45490639 -.00000030 00000+0 12161-2 0 9999 2 25773 51.9908 3.3676 0002517 38.1701 334.6266 11.15060972493152 GLOBALSTAR M035 1 25851U 99037A 25299.28210818 -.00000050 00000+0 52579-3 0 9992 2 25851 51.9912 122.6090 0013327 189.0692 341.6519 11.04540468110746 GLOBALSTAR M032 1 25852U 99037B 25299.28031072 -.00000023 00000+0 14006-2 0 9998 2 25852 51.9961 298.7719 0012534 27.4765 332.6695 11.19063913149466 GLOBALSTAR M051 1 25853U 99037C 25299.32362470 -.00000076 00000+0 -93414-4 0 9994 2 25853 51.9778 84.5365 0001410 100.7715 259.3254 11.42205530147375 GLOBALSTAR M030 1 25854U 99037D 25299.26992659 -.00000112 00000+0 -78612-3 0 9999 2 25854 51.9873 242.4393 0002960 291.2693 68.7808 11.55113695165191 GLOBALSTAR M048 1 25872U 99041A 25299.54664389 -.00000063 00000+0 19011-3 0 9993 2 25872 51.9406 24.1135 0013449 54.6759 319.3229 11.33859474139887 GLOBALSTAR M026 1 25873U 99041B 25299.30679840 -.00000064 00000+0 15542-4 0 9993 2 25873 52.0004 239.1309 0001803 112.9926 58.8651 11.06851158163006 GLOBALSTAR M043 1 25874U 99041C 25299.26909521 -.00000068 00000+0 34490-5 0 9999 2 25874 51.9366 137.6405 0013509 170.0800 0.8745 11.25696333137631 GLOBALSTAR M028 1 25875U 99041D 25299.54800307 -.00000080 00000+0 13285-3 0 9994 2 25875 51.9604 161.3694 0063485 357.6522 2.4033 12.50590441206618 GLOBALSTAR M024 1 25883U 99043A 25299.46879781 -.00000071 00000+0 -21402-3 0 9999 2 25883 52.0009 84.4000 0000648 353.5617 46.3336 11.10170850129447 GLOBALSTAR M027 1 25884U 99043B 25299.37697146 -.00000097 00000+0 -12809-2 0 9991 2 25884 52.0184 166.3114 0020735 201.1485 158.8452 11.04372810155730 GLOBALSTAR M054 1 25885U 99043C 25299.41404132 -.00000033 00000+0 96382-3 0 9996 2 25885 52.0135 271.5058 0005577 41.3266 123.8671 11.39221558134003 GLOBALSTAR M053 1 25886U 99043D 25299.19524192 -.00000041 00000+0 79619-3 0 9994 2 25886 51.9974 226.3928 0003341 319.5360 189.6258 11.27667805134220 GLOBALSTAR M058 1 25907U 99049A 25299.24193477 -.00000071 00000+0 17480-3 0 9999 2 25907 51.9911 119.2210 0002447 143.3407 216.7595 11.93203541557186 GLOBALSTAR M050 1 25908U 99049B 25299.49723660 -.00000129 00000+0 -45764-3 0 9991 2 25908 51.9964 116.4051 0008077 296.1039 92.3619 12.07460284164050 GLOBALSTAR M033 1 25909U 99049C 25299.40485473 -.00000172 00000+0 -77526-3 0 9999 2 25909 51.9933 339.4283 0013993 174.1562 185.9450 12.20292882551762 GLOBALSTAR M055 1 25910U 99049D 25299.15030683 -.00000063 00000+0 26563-3 0 9995 2 25910 52.0040 344.5164 0007104 46.0014 314.1422 12.29434359184398 GLOBALSTAR M057 1 25943U 99058A 25299.49991243 -.00000075 00000+0 15961-3 0 9999 2 25943 52.0001 335.5384 0002244 281.7634 78.2964 12.24827836183020 GLOBALSTAR M059 1 25944U 99058B 25299.47533573 -.00000108 00000+0 -27422-3 0 9999 2 25944 52.0010 211.9940 0000621 68.7744 102.3278 11.99986701589809 GLOBALSTAR M056 1 25945U 99058C 25299.53253551 -.00000047 00000+0 46838-3 0 9995 2 25945 51.9955 210.4313 0001658 70.3269 100.3232 12.04779991178457 GLOBALSTAR M031 1 25946U 99058D 25299.42792465 -.00000028 00000+0 63770-3 0 9999 2 25946 51.9945 95.1828 0002352 92.7489 311.6269 12.16041423180512 GLOBALSTAR M039 1 25961U 99062A 25299.20778265 -.00000016 00000+0 48683-3 0 9992 2 25961 51.9840 229.6496 0002123 290.5725 69.4914 12.62334683196768 GLOBALSTAR M034 1 25962U 99062B 25299.55076691 -.00000021 00000+0 95157-3 0 9999 2 25962 51.9906 29.9145 0013544 289.0710 84.2199 11.79449863153891 GLOBALSTAR M029 1 25963U 99062C 25299.37750905 -.00000102 00000+0 -20005-3 0 9998 2 25963 51.9783 100.1792 0002819 38.1761 351.5217 11.99902743184873 GLOBALSTAR M061 1 25964U 99062D 25299.08913152 -.00000087 00000+0 -11617-3 0 9993 2 25964 51.9785 216.8892 0005209 207.7926 165.2528 11.76777218136598 GLOBALSTAR M063 1 26081U 00008A 25299.52267537 -.00000078 00000+0 72041-4 0 9992 2 26081 51.9914 125.6784 0004265 192.5369 195.7550 11.86176761173167 GLOBALSTAR M062 1 26082U 00008B 25299.37591667 -.00000096 00000+0 14953-4 0 9998 2 26082 51.9849 69.9897 0007367 39.0630 338.2029 12.43475131512947 GLOBALSTAR M060 1 26083U 00008C 25299.48779759 -.00000092 00000+0 -10026-4 0 9995 2 26083 52.0038 48.2448 0003427 45.1807 34.9665 12.17668869168361 GLOBALSTAR M064 1 26084U 00008D 25299.50677580 -.00000063 00000+0 28482-3 0 9999 2 26084 52.0025 223.0017 0001519 341.4719 18.6058 11.88537809182713 GLOBALSTAR M065 1 31571U 07020A 25299.40549808 -.00000023 00000+0 45094-3 0 9991 2 31571 51.9882 186.8782 0009127 237.5174 294.6187 12.62011617849971 GLOBALSTAR M069 1 31573U 07020C 25299.48171279 -.00000089 00000+0 29702-4 0 9995 2 31573 52.0022 193.6016 0002570 39.9849 132.0104 12.23462408850190 GLOBALSTAR M072 1 31574U 07020D 25299.43690667 -.00000064 00000+0 28065-3 0 9991 2 31574 51.9965 2.5513 0001157 199.2657 173.8084 11.91652494847110 GLOBALSTAR M071 1 31576U 07020F 25299.51007186 -.00000114 00000+0 -22504-3 0 9999 2 31576 52.0056 222.8415 0001502 33.6315 138.3106 12.18260474510941 GLOBALSTAR M067 1 32263U 07048A 25299.49924566 -.00000054 00000+0 31945-3 0 9991 2 32263 51.9756 11.6983 0000762 240.3978 225.0716 12.40680469825780 GLOBALSTAR M070 1 32264U 07048B 25299.32957544 -.00000104 00000+0 -33561-5 0 9991 2 32264 51.9736 88.9848 0001027 101.2938 284.8417 12.62324963830237 GLOBALSTAR M066 1 32265U 07048C 25299.52984854 -.00000096 00000+0 -16708-4 0 9991 2 32265 51.9629 8.6730 0004499 272.0512 194.7973 12.30378241831464 GLOBALSTAR M068 1 32266U 07048D 25299.31967409 -.00000063 00000+0 22596-3 0 9990 2 32266 51.9880 262.5179 0001556 61.4743 86.5402 12.62831359834129 GLOBALSTAR M079 1 37188U 10054A 25299.37813793 -.00000115 00000+0 -62410-4 0 9990 2 37188 52.0022 100.4184 0000819 116.9513 273.8369 12.62268016693024 GLOBALSTAR M074 1 37189U 10054B 25299.40103632 -.00000108 00000+0 -21689-4 0 9994 2 37189 51.9999 99.6504 0000789 96.3730 278.2517 12.62272841693631 GLOBALSTAR M076 1 37190U 10054C 25299.35086137 -.00000105 00000+0 -89254-5 0 9990 2 37190 52.0012 99.9875 0000598 106.1289 279.3715 12.62267075693345 GLOBALSTAR M077 1 37191U 10054D 25299.49937132 -.00000100 00000+0 -27558-4 0 9999 2 37191 52.0087 60.2554 0002016 54.0484 24.6980 12.36452556693681 GLOBALSTAR M075 1 37192U 10054E 25299.31655316 -.00000100 00000+0 19834-4 0 9999 2 37192 51.9923 142.2771 0000923 86.1212 84.5299 12.62269325692407 GLOBALSTAR M073 1 37193U 10054F 25299.53464022 -.00000107 00000+0 -17710-4 0 9995 2 37193 52.0072 55.5309 0000611 127.1519 313.8585 12.62263627694427 GLOBALSTAR M083 1 37739U 11033A 25299.45343433 -.00000085 00000+0 10376-3 0 9996 2 37739 51.9884 4.3291 0000457 133.5370 240.0170 12.62263921663433 GLOBALSTAR M088 1 37740U 11033B 25299.37973086 -.00000087 00000+0 91059-4 0 9992 2 37740 52.0211 270.4160 0000599 62.2932 94.7976 12.62269199658964 GLOBALSTAR M091 1 37741U 11033C 25299.23204586 -.00000070 00000+0 18823-3 0 9999 2 37741 51.9992 234.1755 0000751 77.5959 68.5118 12.62260954659737 GLOBALSTAR M085 1 37742U 11033D 25299.46204625 -.00000072 00000+0 17885-3 0 9998 2 37742 52.0114 184.5643 0000953 89.1400 82.6726 12.62266265660278 GLOBALSTAR M081 1 37743U 11033E 25299.40901933 -.00000074 00000+0 16686-3 0 9999 2 37743 51.9947 187.4278 0000738 83.3165 87.2337 12.62269685660416 GLOBALSTAR M089 1 37744U 11033F 25299.29019624 -.00000103 00000+0 70566-5 0 9996 2 37744 51.9908 141.9921 0000807 71.2713 99.8858 12.62272136661240 GLOBALSTAR M084 1 38040U 11080A 25299.52674221 -.00000090 00000+0 77821-4 0 9999 2 38040 52.0039 8.6285 0000271 79.0794 27.0871 12.62264462639256 GLOBALSTAR M080 1 38041U 11080B 25299.49811314 -.00000090 00000+0 76363-4 0 9992 2 38041 52.0087 10.3534 0000955 106.4639 358.8320 12.62269865639378 GLOBALSTAR M082 1 38042U 11080C 25299.52437301 -.00000082 00000+0 11987-3 0 9998 2 38042 52.0088 325.7504 0000665 104.5984 50.5082 12.62264225640086 GLOBALSTAR M092 1 38043U 11080D 25298.59593730 -.00000097 00000+0 39753-4 0 9992 2 38043 52.0092 58.9569 0000718 104.5612 268.7070 12.62267294638429 GLOBALSTAR M090 1 38044U 11080E 25299.55359823 -.00000079 00000+0 13817-3 0 9995 2 38044 52.0136 319.5423 0000356 111.9087 55.1648 12.62263476640206 GLOBALSTAR M086 1 38045U 11080F 25299.49596388 -.00000086 00000+0 99485-4 0 9992 2 38045 51.9908 320.0276 0000669 242.7727 269.0571 12.62278575640146 GLOBALSTAR M097 1 39072U 13005A 25299.25263779 -.00000080 00000+0 13272-3 0 9994 2 39072 52.0041 235.4536 0000511 77.0386 283.0538 12.62266750587366 GLOBALSTAR M093 1 39073U 13005B 25299.22664207 -.00000069 00000+0 19239-3 0 9999 2 39073 52.0100 228.7916 0000548 97.1719 262.9210 12.62265682587314 GLOBALSTAR M094 1 39074U 13005C 25299.30551086 -.00000096 00000+0 46038-4 0 9997 2 39074 51.9931 142.9002 0000892 101.4279 258.6688 12.62264883588932 GLOBALSTAR M096 1 39075U 13005D 25299.39787637 -.00000071 00000+0 18081-3 0 9999 2 39075 52.0063 191.2362 0000850 89.7717 270.3247 12.62268183587866 GLOBALSTAR M078 1 39076U 13005E 25299.29279692 -.00000093 00000+0 62406-4 0 9991 2 39076 51.9867 275.8908 0001270 95.9272 264.1740 12.62261406586470 GLOBALSTAR M095 1 39077U 13005F 25299.39799852 -.00000090 00000+0 79435-4 0 9995 2 39077 52.0077 272.8413 0000697 106.3609 253.7334 12.62261102586349 GLOBALSTAR M087 1 52888U 22064A 25299.49015375 -.00000098 00000+0 34969-4 0 9998 2 52888 52.0008 53.9279 0000826 123.2154 236.8791 12.62289521161627